Location: Alta
(39.2070°N, 120.8111°W)
Time: 02:27:08
(UTC+00:00)

ITAMSAT 1 - Pass Details

Date: 06 April 2023
Orbit: 782 x 797 km, 98.8° (Epoch: 29 May)

Event Time Altitude Azimuth Distance (km) Brightness Sun altitude
Exits shadow 04:17:20 - 186° (S) 2,900 10.4 -20.4°
Reaches altitude 10° 04:18:47 10° 191° (S) 2,351 9.9 -20.6°
Maximum altitude 04:23:41 42° 261° (W) 1,128 8.8 -21.5°
Drops below altitude 10° 04:28:38 10° 332° (NNW) 2,373 10.9 -22.3°
Sets 04:31:06 0° 339° (NNW) 3,308 11.7 -22.7°
